CZ-6A DEB

Satellite information

Favourite Embed

Satellite Type and Status

DEBRISIN ORBIT

Key statistics

Satellite CZ-6A DEB at a glance.

Uptime

913

Days in orbit

Revolutions

≈ 14.7

Per day

Orbit

SSO

Sun Synchronous Orbit

Inclination

98.7

Latest

Satellite identification and parameters

Extended collection of information and parameters for CZ-6A DEB.

Object identification

Identified? True

Debris? True

Object name: CZ-6A DEB

International designator: 2022-151NQ

Object number (NORAD): 54614

Object ID (CCSDS): 54614

Country: PEOPLES REPUBLIC OF CHINA (PRC)

Current information (Y/N): Y

RCS size: SMALL

Orbital parameters

Period: 97.672 minutes

Inclination: 98.6603 deg

SMA: 7025.426 km

Apoapsis: 697.682 km

Periapsis: 596.9 km

RAAN: 180.6624 deg

Eccentricy: 0.0071727

Argument of periapsis: 70.9176 deg

Mean anomaly: 289.9781 deg

Mean motion: 14.74326787 rev/day

Mean motion (dot): 0.00024001 rev/day2

B* drag term: 0.0034749 1/REarth

Two-line elements (TLE)

Creation date: May 12, 2025, 2:31 a.m.

Reference frame: TEME

Reference center: EARTH

Epoch: May 11, 2025, 5:12 p.m. UTC

TLE line 0: 0 CZ-6A DEB

TLE line 1: 1 54614U 22151NQ 25131.71702800 .00024001 00000-0 34749-2 0 9994

TLE line 2: 2 54614 98.6603 180.6624 0071727 70.9176 289.9781 14.74326787 60138

Live tracking on map

Real-time ground track for satellite CZ-6A DEB.

In-orbit conjunctions

A list of the most updated potential collisions computed for object CZ-6A DEB.

Target Orbit TCA Probability of collision Miss distance Type
PSLV R/B SSO 2024-07-30 02:27:39 0.0006129085 222.0 (m) ROCKET BODY
IRIDIUM 33 DEB LEO 2024-06-09 17:23:08 0.0001908505 369.0 (m) DEBRIS

Associated space launch

Chinese satellite reported for atmospheric/ocean/environmental/spatial parameter research purposes, details TBD.

CZ-6A DEB was lifted into orbit during the mission ‘Long March 6A | Yunhai 3’, on board a Long March 6A space rocket.

The launch took place on Nov. 11, 2022, 10:52 p.m. from Launch Complex 9A.

For more information about the launch, click the button.

Launch to space Long March 6A | Yunhai 3
Long March 6A | Yunhai 3

Agency: N/A

Status: Launch Successful

Launch date: Nov. 11, 2022, 10:52 p.m. UTC

Rocket: Long March 6A

Launch pad: Launch Complex 9A

Location: Taiyuan Satellite Launch Center, People's Republic of China

...

Latest news about this satellite

There are no fresh news available about this satellite. Check back as we update our databases every day.


Newsletter sign-up

Weekly statistics, charts and insights to help you stay on top of the space industry.